Stations météo

réclame
Mon MeteoGroup
Deauville, France (7031): Température de l'air & dewpoint: 08.08.2018 23:00:00 - 14.08.2018 23:00:00 (CEST)Deauville, France (7031): Température de l'air 5cm: 08.08.2018 23:00:00 - 14.08.2018 23:00:00 (CEST)Deauville, France (7031): Vitesse du vent & gusts: 08.08.2018 23:00:00 - 14.08.2018 23:00:00 (CEST)Deauville, France (7031): Direction du vent: 08.08.2018 23:00:00 - 14.08.2018 23:00:00 (CEST)Deauville, France (7031): reduced air pressure: 08.08.2018 23:00:00 - 14.08.2018 23:00:00 (CEST)Deauville, France (7031): visibility: 08.08.2018 23:00:00 - 14.08.2018 23:00:00 (CEST)Deauville, France (7031): Quantités de précipitations: 08.08.2018 23:00:00 - 14.08.2018 23:00:00 (CEST)
Date & Time tt [°C] td [°C] tt 5cm [°C] ff [km/h] ff [knt] fx [km/h] fx [knt] dd ppp [hPa] vv [km] rr [mm]
14.08.2018 23:00:00 18,3 15,7 16,4 14 8 27 15 W 1021,3 43 0,0
14.08.2018 22:00:00 18,0 15,6 16,8 18 10 27 15 WNW 1021,0 43 0,0
14.08.2018 21:00:00 18,4 16,0 17,5 10 5 22 12 NW 1020,5 47 0,0
14.08.2018 20:00:00 19,3 15,6 20,7 13 7 22 12 NW 1020,0 42 0,0
14.08.2018 19:00:00 20,4 14,3 23,9 14 7 25 14 NW 1020,3 32 0,0
14.08.2018 18:00:00 20,5 13,9 27,5 10 6 24 13 NW 1020,4 58 0,0
14.08.2018 17:00:00 20,5 13,2 25,6 16 8 27 15 WNW 1020,5 42 0,0
14.08.2018 16:00:00 19,5 14,3 23,9 20 11 30 16 WNW 1020,5 43 0,0
14.08.2018 15:00:00 19,7 14,5 22,9 14 8 27 15 WNW 1020,4 37 0,0
14.08.2018 14:00:00 19,0 14,5 24,1 16 9 31 17 WNW 1020,2 39 0,0
14.08.2018 13:00:00 18,8 15,1 21,0 18 10 29 16 WNW 1019,9 31 0,0
14.08.2018 12:00:00 17,9 15,5 19,9 20 11 28 15 W 1019,6 20 0,0
14.08.2018 11:00:00 17,7 15,7 18,8 16 9 24 13 WNW 1019,1 28 0,0
14.08.2018 10:00:00 17,1 15,8 18,3 16 9 22 12 W 1018,8 15 0,0
14.08.2018 09:00:00 17,0 15,7 17,4 12 7 18 10 W 1018,1 17 0,0
14.08.2018 08:00:00 16,6 15,6 16,4 7 4 17 9 W 1017,7 15 0,0
14.08.2018 07:00:00 17,0 15,2 16,4 10 6 23 13 WNW 1016,7 27 0,0
14.08.2018 06:00:00 17,2 15,0 16,7 12 7 26 14 NW 1016,1 34 0,0
14.08.2018 05:00:00 17,4 15,0 16,9 13 7 24 13 NW 1015,9 37 0,0
14.08.2018 04:00:00 17,2 15,9 16,3 13 7 25 13 W 1015,4 33 0,0
14.08.2018 03:00:00 16,6 15,6 16,1 11 6 27 14 W 1015,2 20 0,0
14.08.2018 02:00:00 16,6 15,5 16,0 13 7 22 12 W 1014,9 30 0,0
14.08.2018 01:00:00 16,6 15,0 16,2 13 7 26 14 W 1014,6 45 0,0
14.08.2018 00:00:00 17,1 14,7 16,5 16 9 31 17 W 1014,1 58 0,0
13.08.2018 23:00:00 17,7 14,6 15,9 16 8 31 17 W 1013,6 60 0,0
13.08.2018 22:00:00 17,5 14,4 15,3 18 10 29 16 WNW 1013,1 60 0,0
13.08.2018 21:00:00 17,7 14,0 16,5 17 9 32 17 WNW 1012,7 60 0,0
13.08.2018 20:00:00 19,1 14,1 20,2 19 10 31 17 WNW 1011,9 50 0,0
13.08.2018 19:00:00 19,4 15,5 20,9 18 10 31 17 WNW 1011,7 29 0,0
13.08.2018 18:00:00 18,6 14,9 19,7 17 9 35 19 WNW 1011,6 50 0,0
13.08.2018 17:00:00 18,4 14,7 19,9 22 12 36 19 WNW 1011,6 56 0,0
13.08.2018 16:00:00 19,5 15,6 19,6 21 11 40 22 W 1011,3 53 0,0
13.08.2018 15:00:00 18,5 15,0 19,3 24 13 37 20 WNW 1011,0 55 0,0
13.08.2018 14:00:00 18,6 15,8 17,7 26 14 37 20 WNW 1010,7 50 0,4
13.08.2018 13:00:00 18,1 15,5 18,1 21 12 40 21 W 1010,5 14 0,0
13.08.2018 12:00:00 18,0 16,2 17,9 24 13 44 24 WNW 1010,0 32 0,0
13.08.2018 11:00:00 16,6 16,0 15,6 18 10 37 20 W 1009,5 49 2,9
13.08.2018 10:00:00 16,2 15,6 15,9 19 10 29 16 WSW 1008,9 47 0,0
13.08.2018 09:00:00 15,7 15,1 15,3 14 8 26 14 WSW 1008,6 10 0,0
13.08.2018 08:00:00 15,6 15,1 15,3 16 9 32 17 WSW 1008,2 18 3,0
13.08.2018 07:00:00 15,8 15,5 15,3 11 6 25 13 WSW 1007,9 7 1,4
13.08.2018 06:00:00 15,7 15,4 15,5 14 8 24 13 W 1008,0 4,0 0,8
13.08.2018 05:00:00 16,1 15,8 15,4 13 7 19 10 SW 1007,9 11 0,0
13.08.2018 04:00:00 16,0 15,7 15,2 9 5 18 10 SW 1008,1 13 0,0
13.08.2018 03:00:00 16,3 15,8 16,0 10 5 16 8 WSW 1008,3 7 0,8
13.08.2018 02:00:00 16,5 16,0 16,2 8 5 15 8 WSW 1008,5 7 0,6
13.08.2018 01:00:00 16,8 16,0 16,1 10 5 18 10 WSW 1008,7 31 0,6
13.08.2018 00:00:00 17,0 15,3 16,0 11 6 16 9 SW 1009,0 19 0,2
12.08.2018 23:00:00 17,3 15,8 15,9 8 5 14 7 SSW 1009,3 50 0,0
12.08.2018 22:00:00 17,2 16,1 15,8 7 4 16 9 SSW 1009,3 42 0,0
12.08.2018 21:00:00 17,6 15,8 16,3 6 4 14 8 SSW 1008,8 48 0,0
12.08.2018 20:00:00 17,7 16,4 17,2 9 5 16 9 S 1009,1 40 0,0
12.08.2018 19:00:00 18,0 16,3 17,6 5 3 14 7 SSW 1010,0 18 0,8
12.08.2018 18:00:00 18,6 16,6 17,6 2 1 22 12 WNW 1010,8 10 2,0
12.08.2018 17:00:00 23,1 14,1 24,6 10 5 18 10 WSW 1010,9 60 0,0
12.08.2018 16:00:00 22,8 14,6 24,7 11 6 20 11 SW 1011,4 20 0,0
12.08.2018 15:00:00 22,3 14,9 19,1 10 6 35 19 SW 1012,1 59 0,2
12.08.2018 14:00:00 23,4 12,7 26,2 17 9 36 19 SSW 1012,0 46 0,0
12.08.2018 13:00:00 23,5 13,1 25,5 18 10 34 18 SSW 1012,5 41 0,0
12.08.2018 12:00:00 23,3 12,9 26,3 21 11 39 21 SSW 1013,0 41 0,0
12.08.2018 11:00:00 23,0 13,7 26,1 16 9 28 15 SSW 1013,3 52 0,0
12.08.2018 10:00:00 20,7 12,4 18,9 11 6 27 15 S 1014,0 45 0,0
12.08.2018 09:00:00 18,4 11,2 17,3 16 9 29 15 S 1014,6 60 0,0
12.08.2018 08:00:00 18,0 11,3 14,2 17 9 29 16 S 1015,2 60 0,0
12.08.2018 07:00:00 16,7 11,6 13,8 10 5 18 10 SSW 1015,6 60 0,0
12.08.2018 06:00:00 16,6 11,7 13,7 10 6 19 10 SSW 1016,1 60 0,0
12.08.2018 05:00:00 17,0 12,1 14,3 8 4 18 10 SSW 1016,5 60 0,0
12.08.2018 04:00:00 17,2 12,3 14,3 11 6 18 10 SSW 1017,1 60 0,0
12.08.2018 03:00:00 17,3 12,4 14,4 10 5 18 10 SSW 1017,7 60 0,0
12.08.2018 02:00:00 17,5 12,6 13,7 10 5 21 12 SSW 1018,4 60 0,0
12.08.2018 01:00:00 17,7 12,8 12,8 10 5 16 9 S 1019,2 60 0,0
12.08.2018 00:00:00 18,2 12,9 12,5 9 5 15 8 S 1019,9 60 0,0
11.08.2018 23:00:00 17,8 13,1 12,5 8 4 11 6 S 1020,5 60 0,0
11.08.2018 22:00:00 19,1 13,3 14,1 5 3 10 5 S 1020,7 2,7 0,0
11.08.2018 21:00:00 20,7 13,9 19,6 6 4 16 9 SSW 1020,8 60 0,0
11.08.2018 20:00:00 21,9 14,0 23,5 6 3 15 8 SSW 1021,0 60 0,0
11.08.2018 19:00:00 21,9 14,0 24,1 11 6 20 11 SW 1021,7 60 0,0
11.08.2018 18:00:00 22,1 13,7 25,0 10 5 29 16 SW 1021,8 60 0,0
11.08.2018 17:00:00 22,1 13,4 25,4 16 9 29 16 SW 1022,4 59 0,0
11.08.2018 16:00:00 23,0 13,7 28,5 14 8 26 14 SW 1022,8 60 0,0
11.08.2018 15:00:00 22,6 14,9 22,2 12 7 19 11 WSW 1023,4 36 0,0
11.08.2018 14:00:00 20,8 14,0 25,3 8 5 19 10 SW 1023,9 60 0,0
11.08.2018 13:00:00 20,5 14,6 25,4 11 6 22 12 SW 1024,2 59 0,0
11.08.2018 12:00:00 19,1 13,7 23,0 6 3 13 7 W 1024,6 20 0,0
11.08.2018 11:00:00 18,2 14,1 20,8 7 4 15 8 W 1025,1 59 0,0
11.08.2018 10:00:00 17,0 13,9 16,7 9 5 19 11 WSW 1025,3 46 0,0
11.08.2018 09:00:00 15,8 14,2 13,3 10 5 16 9 WSW 1025,0 55 0,0
11.08.2018 08:00:00 14,2 13,7 13,3 11 6 16 9 SW 1024,9 15 0,0
11.08.2018 07:00:00 14,2 13,7 13,4 12 7 18 10 WSW 1024,6 14 0,6
11.08.2018 06:00:00 14,4 13,8 13,7 6 4 20 11 W 1024,5 20 0,6
11.08.2018 05:00:00 14,2 13,4 13,3 10 6 19 11 W 1024,1 19 0,0
11.08.2018 04:00:00 14,5 13,5 13,4 13 7 21 11 WSW 1024,0 37 0,0
11.08.2018 03:00:00 14,3 13,5 13,0 13 7 21 11 SW 1024,1 43 0,0
11.08.2018 02:00:00 14,3 13,2 12,8 12 7 18 10 WSW 1024,2 55 0,0
11.08.2018 01:00:00 14,4 12,6 12,9 11 6 22 12 SW 1024,4 60 0,0
11.08.2018 00:00:00 14,9 12,6 13,1 13 7 24 13 WSW 1024,1 60 0,0
10.08.2018 23:00:00 15,4 12,5 13,3 10 5 25 13 WSW 1023,9 60 0,0
10.08.2018 22:00:00 16,2 12,2 14,6 14 8 35 19 W 1023,3 60 0,0
10.08.2018 21:00:00 17,0 13,3 16,4 18 10 40 22 W 1022,8 57 0,0
10.08.2018 20:00:00 16,8 14,1 14,8 27 15 41 22 WNW 1022,4 37 0,2
10.08.2018 19:00:00 19,1 10,9 17,2 19 11 38 20 WSW 1022,0 48 0,0
10.08.2018 18:00:00 20,4 10,2 20,5 19 10 40 22 W 1022,0 49 0,0
10.08.2018 17:00:00 20,3 9,8 20,6 21 11 39 21 WSW 1022,1 57 0,0
10.08.2018 16:00:00 20,4 9,3 24,3 25 14 48 26 WSW 1022,3 39 0,0
10.08.2018 15:00:00 20,3 9,2 23,9 27 15 43 23 SW 1022,4 60 0,0
10.08.2018 14:00:00 19,6 8,9 24,2 25 14 43 23 SW 1022,4 59 0,0
10.08.2018 13:00:00 19,7 10,4 21,2 26 14 45 25 SW 1022,7 60 0,0
10.08.2018 12:00:00 18,5 10,6 21,6 19 10 32 17 WSW 1022,9 60 0,0
10.08.2018 11:00:00 16,7 11,4 20,0 22 12 32 17 SW 1023,2 36 0,0
10.08.2018 10:00:00 15,5 11,5 13,8 18 10 29 16 SW 1023,2 51 0,0
10.08.2018 09:00:00 13,6 10,9 11,1 13 7 25 14 SW 1023,0 60 0,0
10.08.2018 08:00:00 12,0 10,1 8,7 13 7 22 12 SW 1022,7 59 0,0
10.08.2018 07:00:00 10,9 9,3 8,5 10 6 19 10 SW 1022,4 56 0,0
10.08.2018 06:00:00 11,2 9,3 8,3 10 5 22 12 SW 1022,2 60 0,0
10.08.2018 05:00:00 11,3 9,0 8,5 11 6 21 11 SW 1022,1 60 0,0
10.08.2018 04:00:00 11,5 9,9 8,2 12 6 18 10 SW 1022,2 60 0,0
10.08.2018 03:00:00 11,0 9,6 6,9 9 5 17 9 SW 1022,1 60 0,0
10.08.2018 02:00:00 10,9 9,2 7,4 8 4 16 9 SW 1021,9 60 0,0
10.08.2018 01:00:00 11,0 9,1 8,0 9 5 18 10 SW 1021,5 60 0,0
10.08.2018 00:00:00 12,4 9,6 10,0 12 6 20 11 WSW 1020,9 60 0,0
09.08.2018 23:00:00 13,7 9,9 11,1 12 7 18 10 WSW 1020,4 60 0,0
09.08.2018 22:00:00 15,3 9,6 13,0 14 8 31 17 W 1019,5 60 0,0
09.08.2018 21:00:00 16,4 10,0 15,7 21 11 33 18 WNW 1018,6 55 0,0
09.08.2018 20:00:00 17,0 11,5 17,6 17 9 37 20 NW 1018,0 31 0,0
09.08.2018 19:00:00 17,4 11,4 16,2 26 14 39 21 WNW 1017,4 58 0,0
09.08.2018 18:00:00 17,4 13,3 17,7 16 9 38 21 NW 1016,7 43 0,0
09.08.2018 17:00:00 16,3 11,7 15,0 25 14 42 23 WNW 1016,1 39 0,0
09.08.2018 16:00:00 15,0 13,2 14,3 18 10 35 19 NW 1015,5 40 0,6
09.08.2018 15:00:00 14,1 13,0 13,8 14 7 34 18 NW 1015,4 4,0 3,6
09.08.2018 14:00:00 13,7 12,8 13,7 15 8 40 22 NNW 1014,6 4,2 3,7
09.08.2018 13:00:00 13,8 13,2 13,6 14 8 32 18 N 1013,2 5 3,0
09.08.2018 12:00:00 13,9 12,6 13,8 17 9 31 17 N 1012,2 19 0,6
09.08.2018 11:00:00 14,2 13,2 13,9 14 7 30 16 N 1011,9 7 1,8
09.08.2018 10:00:00 14,9 13,9 14,1 13 7 25 14 N 1012,1 13 1,8
09.08.2018 09:00:00 15,2 12,9 14,2 11 6 30 16 N 1012,4 12 0,6
09.08.2018 08:00:00 15,7 11,3 14,6 13 7 26 14 N 1011,9 60 0,0
09.08.2018 07:00:00 15,5 12,1 13,9 14 8 25 13 NNE 1012,0 60 0,0
09.08.2018 06:00:00 15,4 11,4 13,4 11 6 20 11 NNE 1012,5 60 0,0
09.08.2018 05:00:00 15,8 12,4 12,5 10 5 18 10 NNE 1013,2 60 0,0
09.08.2018 04:00:00 15,3 11,5 12,3 7 4 12 7 NE 1013,4 60 0,0
09.08.2018 03:00:00 15,1 12,4 12,5 5 3 8 5 NE 1013,6 60 0,0
09.08.2018 02:00:00 15,1 12,2 12,6 5 3 8 5 NNE 1014,5 60 0,0
09.08.2018 01:00:00 15,7 12,4 13,9 5 3 9 5 NNE 1015,3 60 0,0
09.08.2018 00:00:00 16,0 12,2 12,2 6 4 10 5 NE 1015,3 60 0,0
08.08.2018 23:00:00 14,9 12,0 9,8 4 2 9 5 NE 1015,3 60 0,0

tt = Température de l'air
td = dewpoint
tt 5cm = Température de l'air 5cm
ff = Vitesse du vent
fx = gusts
dd = Direction du vent
ppp = reduced air pressure
vv = visibility
rr = Quantités de précipitations

stations d'obs. à proximité